DLH2NE EDDF-EDDB

Flight info

Callsign DLH2NE
Flight time 0h 45m
Altitude 31000
Route TOBAK3W TOBAK N858 SWALM T201 TAMEB T278 KLF KLF1R
Aircraft A319/M-SDE2E3FGILORWXYZ/HB1

Departure

Time 2026-05-06 11:07
Airport Frankfurt Main Airport (EDDF)

Arrival

Time 2026-05-06 11:53
Airport Berlin Brandenburg Airport (EDDB)
Time Latitude Longitude Altitude Speed Heading
2026-05-06 10:19 50.04656 8.56808 362 ft 0 kts 295°
2026-05-06 10:58 50.04649 8.56829 363 ft 4 kts 295°
2026-05-06 10:58 50.04639 8.56866 363 ft 2 kts 295°
2026-05-06 10:58 50.04631 8.56900 361 ft 4 kts 266°
2026-05-06 10:59 50.04640 8.56930 358 ft 4 kts 204°
2026-05-06 10:59 50.04666 8.56943 358 ft 4 kts 202°
2026-05-06 10:59 50.04657 8.56937 363 ft 4 kts 204°
2026-05-06 10:59 50.04646 8.56929 364 ft 0 kts 204°
2026-05-06 11:01 50.04645 8.56928 356 ft 2 kts 204°
2026-05-06 11:01 50.04617 8.56914 356 ft 7 kts 196°
2026-05-06 11:02 50.04562 8.56894 361 ft 6 kts 193°
2026-05-06 11:02 50.04515 8.56876 359 ft 9 kts 193°
2026-05-06 11:02 50.04445 8.56852 362 ft 12 kts 191°
2026-05-06 11:02 50.04356 8.56830 360 ft 13 kts 191°
2026-05-06 11:03 50.04280 8.56854 360 ft 11 kts 122°
2026-05-06 11:03 50.04293 8.56974 361 ft 13 kts 70°
2026-05-06 11:03 50.04324 8.57103 361 ft 12 kts 70°
2026-05-06 11:03 50.04353 8.57228 361 ft 12 kts 69°
2026-05-06 11:04 50.04385 8.57360 365 ft 14 kts 70°
2026-05-06 11:04 50.04420 8.57505 364 ft 14 kts 70°
2026-05-06 11:04 50.04420 8.57614 364 ft 8 kts 121°
2026-05-06 11:04 50.04381 8.57660 367 ft 5 kts 159°
2026-05-06 11:05 50.04376 8.57662 367 ft 0 kts 161°
2026-05-06 11:05 50.04370 8.57666 365 ft 4 kts 161°
2026-05-06 11:05 50.04312 8.57697 362 ft 11 kts 161°
2026-05-06 11:06 50.04262 8.57647 365 ft 6 kts 249°
2026-05-06 11:06 50.04261 8.57641 364 ft 0 kts 249°
2026-05-06 11:06 50.04246 8.57579 364 ft 24 kts 249°
2026-05-06 11:06 50.04102 8.56978 363 ft 92 kts 249°
2026-05-06 11:07 50.03810 8.55757 353 ft 146 kts 250°
2026-05-06 11:07 50.03454 8.54225 874 ft 148 kts 250°
2026-05-06 11:07 50.03122 8.52716 1574 ft 149 kts 248°
2026-05-06 11:07 50.02749 8.51081 1984 ft 171 kts 246°
2026-05-06 11:08 50.02037 8.49484 2406 ft 192 kts 223°
2026-05-06 11:08 50.00876 8.48352 3051 ft 199 kts 203°
2026-05-06 11:08 49.99520 8.47859 3826 ft 202 kts 190°
2026-05-06 11:08 49.98126 8.47585 4586 ft 201 kts 189°
2026-05-06 11:09 49.96728 8.47286 5243 ft 205 kts 191°
2026-05-06 11:09 49.95323 8.46789 5827 ft 214 kts 199°
2026-05-06 11:09 49.93819 8.46071 6266 ft 236 kts 199°
2026-05-06 11:09 49.92272 8.45132 7081 ft 241 kts 214°
2026-05-06 11:10 49.91100 8.43288 8025 ft 244 kts 240°
2026-05-06 11:10 49.90607 8.40763 8984 ft 250 kts 266°
2026-05-06 11:10 49.90967 8.38097 9923 ft 260 kts 294°
2026-05-06 11:10 49.92174 8.35963 10758 ft 273 kts 324°
2026-05-06 11:11 49.93927 8.34685 11535 ft 287 kts 334°
2026-05-06 11:11 49.95857 8.33462 11890 ft 312 kts 334°
2026-05-06 11:11 49.97939 8.32139 12247 ft 334 kts 335°
2026-05-06 11:11 50.00117 8.30744 12942 ft 343 kts 334°
2026-05-06 11:12 50.02388 8.29493 13760 ft 351 kts 345°
2026-05-06 11:12 50.04848 8.29258 14496 ft 361 kts
2026-05-06 11:12 50.07263 8.30386 15225 ft 368 kts 28°
2026-05-06 11:12 50.09258 8.32874 15965 ft 371 kts 51°
2026-05-06 11:13 50.10592 8.36315 16720 ft 373 kts 65°
2026-05-06 11:13 50.11705 8.39987 17500 ft 377 kts 66°
2026-05-06 11:13 50.12838 8.43693 18195 ft 382 kts 66°
2026-05-06 11:13 50.13994 8.47450 18818 ft 387 kts 65°
2026-05-06 11:14 50.15169 8.51252 19444 ft 391 kts 65°
2026-05-06 11:14 50.16358 8.55090 20069 ft 396 kts 65°
2026-05-06 11:14 50.17562 8.58985 20696 ft 401 kts 65°
2026-05-06 11:14 50.18773 8.62924 21307 ft 405 kts 65°
2026-05-06 11:15 50.20000 8.66909 21929 ft 410 kts 65°
2026-05-06 11:15 50.21231 8.70920 22558 ft 415 kts 65°
2026-05-06 11:15 50.22485 8.75001 23186 ft 420 kts 65°
2026-05-06 11:15 50.23754 8.79129 23724 ft 424 kts 65°
2026-05-06 11:16 50.25029 8.83308 24252 ft 428 kts 66°
2026-05-06 11:16 50.26316 8.87522 24781 ft 431 kts 66°
2026-05-06 11:16 50.27611 8.91768 25296 ft 435 kts 66°
2026-05-06 11:16 50.28921 8.96052 25811 ft 438 kts 66°
2026-05-06 11:17 50.30233 9.00370 26318 ft 441 kts 66°
2026-05-06 11:17 50.31545 9.04730 26810 ft 445 kts 66°
2026-05-06 11:17 50.32877 9.09127 27325 ft 448 kts 66°
2026-05-06 11:17 50.34219 9.13547 27827 ft 452 kts 66°
2026-05-06 11:18 50.35566 9.18007 28326 ft 455 kts 66°
2026-05-06 11:18 50.36917 9.22507 28819 ft 458 kts 66°
2026-05-06 11:18 50.38274 9.27034 29274 ft 461 kts 66°
2026-05-06 11:18 50.39645 9.31602 29675 ft 466 kts 66°
2026-05-06 11:19 50.41030 9.36226 30049 ft 470 kts 66°
2026-05-06 11:19 50.42420 9.40882 30419 ft 473 kts 67°
2026-05-06 11:19 50.43794 9.45516 30698 ft 461 kts 66°
2026-05-06 11:19 50.45128 9.49972 30761 ft 444 kts 67°
2026-05-06 11:20 50.46420 9.54326 30773 ft 437 kts 67°
2026-05-06 11:20 50.48977 9.62929 30770 ft 433 kts 67°
2026-05-06 11:21 50.51487 9.71443 30770 ft 431 kts 67°
2026-05-06 11:21 50.53997 9.80001 30743 ft 431 kts 67°
2026-05-06 11:22 50.56534 9.88664 30768 ft 434 kts 68°
2026-05-06 11:22 50.59052 9.97287 30760 ft 434 kts 68°
2026-05-06 11:23 50.61572 10.05916 30754 ft 434 kts 68°
2026-05-06 11:23 50.64057 10.14507 30756 ft 434 kts 68°
2026-05-06 11:24 50.66552 10.23158 30758 ft 434 kts 68°
2026-05-06 11:24 50.69054 10.31819 30758 ft 434 kts 68°
2026-05-06 11:25 50.71540 10.40499 30742 ft 435 kts 68°
2026-05-06 11:25 50.74031 10.49204 30746 ft 435 kts 68°
2026-05-06 11:26 50.76514 10.57931 30754 ft 436 kts 69°
2026-05-06 11:26 50.78983 10.66657 30762 ft 435 kts 69°
2026-05-06 11:27 50.81519 10.75340 30768 ft 436 kts 64°
2026-05-06 11:27 50.84417 10.83761 30775 ft 436 kts 64°
2026-05-06 11:28 50.87282 10.92222 30747 ft 436 kts 64°
2026-05-06 11:28 50.90139 11.00711 30754 ft 438 kts 64°
2026-05-06 11:29 50.92995 11.09237 30759 ft 438 kts 64°
2026-05-06 11:29 50.95843 11.17777 30759 ft 438 kts 64°
2026-05-06 11:30 50.98681 11.26345 30748 ft 439 kts 64°
2026-05-06 11:30 51.02022 11.34409 30750 ft 442 kts 42°
2026-05-06 11:31 51.06988 11.40134 30773 ft 441 kts 33°
2026-05-06 11:31 51.12012 11.45743 30741 ft 441 kts 34°
2026-05-06 11:31 51.14529 11.48575 30517 ft 442 kts 34°
2026-05-06 11:32 51.17024 11.51399 30073 ft 440 kts 34°
2026-05-06 11:32 51.19487 11.54195 29517 ft 440 kts 34°
2026-05-06 11:32 51.21975 11.57011 29044 ft 437 kts 34°
2026-05-06 11:32 51.24483 11.59838 28566 ft 434 kts 34°
2026-05-06 11:33 51.26938 11.62615 28071 ft 431 kts 34°
2026-05-06 11:33 51.29374 11.65393 27606 ft 428 kts 34°
2026-05-06 11:33 51.31791 11.68157 27114 ft 427 kts 34°
2026-05-06 11:33 51.34205 11.70900 26632 ft 425 kts 34°
2026-05-06 11:34 51.36582 11.73597 26144 ft 424 kts 34°
2026-05-06 11:34 51.38974 11.76334 25635 ft 423 kts 34°
2026-05-06 11:34 51.41364 11.79069 25146 ft 422 kts 34°
2026-05-06 11:34 51.43750 11.81812 24641 ft 422 kts 34°
2026-05-06 11:35 51.46130 11.84545 24212 ft 419 kts 34°
2026-05-06 11:35 51.48490 11.87245 23764 ft 414 kts 34°
2026-05-06 11:35 51.50821 11.89917 23288 ft 410 kts 35°
2026-05-06 11:35 51.53128 11.92583 22724 ft 405 kts 35°
2026-05-06 11:36 51.55394 11.95200 22257 ft 397 kts 35°
2026-05-06 11:36 51.57618 11.97773 21761 ft 391 kts 35°
2026-05-06 11:36 51.59822 12.00319 21062 ft 391 kts 35°
2026-05-06 11:36 51.62018 12.02851 20611 ft 385 kts 35°
2026-05-06 11:37 51.64176 12.05347 20153 ft 380 kts 35°
2026-05-06 11:37 51.66307 12.07822 19712 ft 376 kts 35°
2026-05-06 11:37 51.68421 12.10270 19243 ft 372 kts 35°
2026-05-06 11:37 51.70511 12.12705 18802 ft 370 kts 35°
2026-05-06 11:38 51.72596 12.15134 18358 ft 370 kts 35°
2026-05-06 11:38 51.73977 12.16750 18063 ft 370 kts 35°
2026-05-06 11:38 51.76062 12.19180 17589 ft 370 kts 35°
2026-05-06 11:38 51.78148 12.21603 17152 ft 369 kts 35°
2026-05-06 11:39 51.80223 12.24024 16721 ft 366 kts 35°
2026-05-06 11:39 51.82276 12.26428 16311 ft 362 kts 35°
2026-05-06 11:39 51.84304 12.28807 15904 ft 359 kts 35°
2026-05-06 11:39 51.86309 12.31173 15500 ft 355 kts 35°
2026-05-06 11:40 51.88302 12.33511 15110 ft 352 kts 34°
2026-05-06 11:40 51.90281 12.35835 14630 ft 352 kts 34°
2026-05-06 11:40 51.92253 12.38154 14225 ft 348 kts 34°
2026-05-06 11:40 51.94195 12.40440 13871 ft 342 kts 34°
2026-05-06 11:41 51.96106 12.42705 13480 ft 338 kts 34°
2026-05-06 11:41 51.97996 12.44938 13091 ft 333 kts 34°
2026-05-06 11:41 51.99852 12.47138 12729 ft 328 kts 34°
2026-05-06 11:41 52.01682 12.49309 12358 ft 323 kts 34°
2026-05-06 11:42 52.03484 12.51444 11993 ft 319 kts 34°
2026-05-06 11:42 52.05263 12.53549 11630 ft 315 kts 34°
2026-05-06 11:42 52.07023 12.55638 11261 ft 311 kts 34°
2026-05-06 11:42 52.08765 12.57706 10897 ft 310 kts 34°
2026-05-06 11:43 52.10508 12.59780 10529 ft 310 kts 34°
2026-05-06 11:43 52.12253 12.61849 10142 ft 310 kts 34°
2026-05-06 11:43 52.13995 12.63925 9774 ft 309 kts 35°
2026-05-06 11:44 52.16992 12.68877 9149 ft 305 kts 53°
2026-05-06 11:44 52.18120 12.71774 8793 ft 302 kts 62°
2026-05-06 11:44 52.18999 12.74865 8404 ft 300 kts 68°
2026-05-06 11:44 52.19770 12.78007 8017 ft 298 kts 69°
2026-05-06 11:45 52.20532 12.81141 7606 ft 296 kts 69°
2026-05-06 11:45 52.21290 12.84254 7203 ft 294 kts 69°
2026-05-06 11:45 52.22043 12.87345 6776 ft 293 kts 69°
2026-05-06 11:45 52.22791 12.90423 6359 ft 291 kts 69°
2026-05-06 11:46 52.23540 12.93491 5923 ft 290 kts 68°
2026-05-06 11:46 52.24285 12.96544 5482 ft 289 kts 68°
2026-05-06 11:46 52.25016 12.99547 5282 ft 279 kts 68°
2026-05-06 11:46 52.25708 13.02400 5249 ft 261 kts 68°
2026-05-06 11:47 52.26344 13.05068 5257 ft 243 kts 69°
2026-05-06 11:47 52.26935 13.07557 5258 ft 229 kts 68°
2026-05-06 11:47 52.27507 13.09926 5116 ft 222 kts 68°
2026-05-06 11:47 52.28074 13.12265 4852 ft 221 kts 67°
2026-05-06 11:48 52.28640 13.14600 4561 ft 221 kts 66°
2026-05-06 11:48 52.29201 13.16923 4246 ft 218 kts 66°
2026-05-06 11:48 52.29746 13.19187 3958 ft 210 kts 66°
2026-05-06 11:48 52.30269 13.21361 3717 ft 201 kts 66°
2026-05-06 11:49 52.30778 13.23472 3421 ft 198 kts 65°
2026-05-06 11:49 52.31276 13.25542 3160 ft 194 kts 66°
2026-05-06 11:49 52.31765 13.27573 2900 ft 190 kts 66°
2026-05-06 11:49 52.32244 13.29570 2640 ft 187 kts 66°
2026-05-06 11:50 52.32715 13.31532 2391 ft 183 kts 66°
2026-05-06 11:50 52.33175 13.33452 2143 ft 180 kts 67°
2026-05-06 11:50 52.33625 13.35333 1902 ft 175 kts 67°
2026-05-06 11:50 52.34063 13.37163 1668 ft 170 kts 66°
2026-05-06 11:51 52.34483 13.38920 1439 ft 162 kts 66°
2026-05-06 11:51 52.34878 13.40577 1219 ft 151 kts 66°
2026-05-06 11:51 52.35240 13.42101 1016 ft 136 kts 65°
2026-05-06 11:51 52.35576 13.43504 833 ft 129 kts 66°
2026-05-06 11:52 52.35899 13.44853 675 ft 125 kts 65°
2026-05-06 11:52 52.36219 13.46180 469 ft 127 kts 65°
2026-05-06 11:52 52.36544 13.47541 321 ft 127 kts 65°
2026-05-06 11:52 52.36859 13.48878 165 ft 122 kts 65°
2026-05-06 11:53 52.37126 13.50004 155 ft 85 kts 69°
2026-05-06 11:53 52.37277 13.50648 155 ft 38 kts 70°
2026-05-06 11:53 52.37305 13.50966 155 ft 24 kts 92°
2026-05-06 11:53 52.37289 13.51164 155 ft 12 kts 99°
2026-05-06 11:54 52.37280 13.51263 155 ft 4 kts 99°
2026-05-06 11:54 52.37279 13.51266 155 ft 0 kts 99°
2026-05-06 11:54 52.37278 13.51283 155 ft 4 kts 99°
2026-05-06 11:55 52.37260 13.51358 155 ft 10 kts 127°
2026-05-06 11:55 52.37196 13.51420 155 ft 11 kts 156°
2026-05-06 11:55 52.37125 13.51398 155 ft 12 kts 236°
2026-05-06 11:55 52.37096 13.51281 155 ft 11 kts 249°
2026-05-06 11:56 52.37069 13.51165 155 ft 11 kts 249°
2026-05-06 11:56 52.37040 13.51042 155 ft 12 kts 249°
2026-05-06 11:56 52.37010 13.50914 155 ft 12 kts 249°
2026-05-06 11:56 52.36978 13.50781 155 ft 13 kts 248°
2026-05-06 11:57 52.36944 13.50643 155 ft 13 kts 248°
2026-05-06 11:57 52.36910 13.50500 155 ft 14 kts 249°
2026-05-06 11:57 52.36876 13.50352 155 ft 14 kts 249°
2026-05-06 11:57 52.36839 13.50210 156 ft 12 kts 232°
2026-05-06 11:58 52.36758 13.50181 155 ft 12 kts 190°
2026-05-06 11:58 52.36674 13.50173 155 ft 13 kts 161°
2026-05-06 11:58 52.36591 13.50225 155 ft 13 kts 159°
2026-05-06 11:58 52.36510 13.50280 154 ft 11 kts 144°
2026-05-06 11:59 52.36517 13.50395 155 ft 11 kts 68°
2026-05-06 11:59 52.36539 13.50488 154 ft 4 kts 69°
2026-05-06 11:59 52.36541 13.50496 155 ft 0 kts 69°